Terminal Aerodrome Forecast
Issued by NWS Honolulu, HI

Home | Current Version | Previous Version | Text Only | Print | Product List | Glossary On
Versions: 1 2 3 4 5 6 7 8 9 10 11 12 13 14 15 16 17 18 19 20 21 22 23 24 25 26 27 28 29 30 31 32 33 34 35 36 37 38 39 40 41 42 43 44 45 46 47 48 49 50
000
FTPA31 PHFO 211739
TAFHNL
TAF
PHNL 211739Z 2118/2224 06010KT P6SM FEW025 SCT045 BKN300
     FM212000 06015G23KT P6SM VCSH FEW025 SCT045 BKN060
     FM212200 06015G23KT P6SM FEW025 SCT045 BKN060
     FM220500 06011KT P6SM FEW025 SCT050 BKN300
     FM222000 06012G20KT P6SM FEW025 SCT045 BKN300=

USA.gov is the U.S. government's official web portal to all federal, state and local government web resources and services.